This is the latest recevied weather packets stored in our database for station/object W7JFO-3. If no packets are shown the sender has not sent any weather packets the latest 10 day(s).
| Time | Temp. | Humidity | Pressure | Rain* | Wind** | Luminosity | Snow |
|---|---|---|---|---|---|---|---|
| 1777510917 | 13.89° C | 30% | 1021.2 hPa | 0 mm | - | 227 W/m² | - |
| 1777510017 | 13.33° C | 32% | 1021.2 hPa | 0 mm | - | 151 W/m² | - |
| 1777509117 | 13.89° C | 31% | 1021.1 hPa | 0 mm | - | 146 W/m² | - |
| 1777508217 | 13.89° C | 30% | 1021.1 hPa | 0 mm | - | 83 W/m² | - |
| 1777507317 | 13.33° C | 32% | 1021.3 hPa | 0 mm | - | 418 W/m² | - |
| 1777506417 | 13.33° C | 31% | 1021.2 hPa | 0 mm | - | 178 W/m² | - |
| 1777505517 | 13.89° C | 32% | 1021.2 hPa | 0 mm | - | 578 W/m² | - |
| 1777504617 | 13.89° C | 32% | 1021.2 hPa | 0 mm | - | 621 W/m² | - |
| 1777503717 | 13.33° C | 32% | 1021.3 hPa | 0 mm | - | 262 W/m² | - |
| 1777502817 | 12.78° C | 31% | 1021.5 hPa | 0 mm | - | 209 W/m² | - |
| 1777501917 | 13.89° C | 33% | 1021.6 hPa | 0 mm | - | 708 W/m² | - |
| 1777501017 | 13.89° C | 33% | 1021.6 hPa | 0 mm | - | 737 W/m² | - |
| 1777500117 | 13.33° C | 36% | 1021.8 hPa | 0 mm | - | 390 W/m² | - |
| 1777499217 | 13.33° C | 35% | 1021.9 hPa | 0 mm | - | 814 W/m² | - |
| 1777498317 | 14.44° C | 36% | 1021.8 hPa | 0 mm | - | 960 W/m² | - |
| 1777497417 | 13.89° C | 40% | 1021.8 hPa | 0 mm | - | 842 W/m² | - |
| 1777496518 | 12.78° C | 39% | 1021.9 hPa | 0 mm | - | 837 W/m² | - |
| 1777495618 | 12.22° C | 36% | 1022 hPa | 0 mm | - | 754 W/m² | - |
| 1777494718 | 12.22° C | 48% | 1021.9 hPa | 0 mm | - | 752 W/m² | - |
| 1777493818 | 11.67° C | 55% | 1022 hPa | 0 mm | - | 188 W/m² | - |
| 1777492918 | 11.11° C | 59% | 1022 hPa | 0 mm | - | 882 W/m² | - |
| 1777492018 | 11.11° C | 62% | 1022 hPa | 0 mm | - | 846 W/m² | - |
| 1777491118 | 10.56° C | 62% | 1022 hPa | 0 mm | - | 714 W/m² | - |
| 1777490218 | 10.56° C | 64% | 1022.1 hPa | 0 mm | - | 728 W/m² | - |
| 1777489318 | 10° C | 61% | 1022.1 hPa | 0 mm | - | 851 W/m² | - |
* Rain latest hour (hover to see other rain measurements)
** Current wind speed in m/s (hover to see current wind gust speed)